Regional Weather Roundup
Issued by NWS Charleston, SC

Current Version | Previous Version | Graphics & Text | Print | Product List | Glossary On
Versions: 1 2 3 4 5 6 7 8 9 10 11 12 13 14 15 16 17 18 19 20 21 22 23 24 25 26 27 28 29 30 31 32 33 34 35 36 37 38 39 40 41 42 43 44 45 46 47 48 49 50
000
ASUS42 KCHS 300727
RWRCHS

REGIONAL WEATHER ROUNDUP
NATIONAL WEATHER SERVICE CHARLESTON SC
300 AM EDT THU MAR 30 2017

NOTE: "FAIR" INDICATES FEW OR NO CLOUDS BELOW 12,000 FEET WITH NO
SIGNIFICANT WEATHER AND/OR OBSTRUCTIONS TO VISIBILITY.

NOT ALL STATIONS ARE QUALITY CONTROLLED. USE DATA WITH CAUTION...
ESPECIALLY DEWPOINT OBSERVATIONS.

SCZ027-030-031-034>040-042>050-300800-
...SOUTHEAST SOUTH CAROLINA...

CITY           SKY/WX    TMP DP  RH WIND       PRES   REMARKS
N CHARLESTON   MOCLDY    67  62  84 E7        30.05F
WATERFRONT PRK   N/A     66  64  93 E9        30.04F
JOHNS ISLAND   FAIR      66  64  94 E6        30.04F
PINOPOLIS        N/A     63  63 100 CALM      29.96F
MONCKS CORNER  FAIR      61  59  94 CALM      30.05S
SUMMERVILLE    PTSUNNY   64  61  88 SE3       30.05F
BEAUFORT MCAS  PTCLDY    69  67  93 E10       30.02F
BEAUFORT ARPT  FAIR      66  64  94 E7        30.02F
HILTON HEAD IS CLEAR     66  66 100 VRB6      30.02F
WALTERBORO     SUNNY     64  63  94 E5        30.04F
ALLENDALE      CLOUDY    68  66  94 SE9       30.01F

...SOUTHERN MIDLANDS AND PEE DEE...

CITY           SKY/WX    TMP DP  RH WIND       PRES   REMARKS
GEORGETOWN     FAIR      63  61  94 E8        30.07F
KINGSTREE      FAIR      57  55  94 E5        30.06F
ORANGEBURG     CLOUDY    66  62  87 SE7       30.04F
BARNWELL       CLOUDY    68  64  88 E7        30.03S
AIKEN          CLOUDY    63  59  88 E7        30.06S
MANNING        FAIR      59  55  88 CALM      30.06F
COLUMBIA       CLOUDY    66  61  84 SE8       30.04F
SUMTER         CLOUDY    61  57  86 E5        30.05S
FLORENCE       CLEAR     57  55  93 E6        30.08F
MYRTLE BEACH   CLEAR     62  58  86 E12       30.09F
N MYRTLE BEACH CLEAR     62  58  86 E10G18    30.08F

$$

GAZ063-065-086>088-099>101-113>116-118-119-134>141-150-300800-
...SOUTHEAST GEORGIA...

CITY           SKY/WX    TMP DP  RH WIND       PRES   REMARKS
SAVANNAH ARPT  CLOUDY    67  64  90 E3        30.02S
HUNTER AAF     CLOUDY    66  66 100 E5        29.99F
FORT STEWART   PTCLDY    63  61  92 E5        29.99F
STATESBORO     CLEAR     64  64 100 CALM      30.02S
SYLVANIA       CLOUDY   N/A N/A N/A CALM      30.03S FOG
CLAXTON        FAIR     N/A N/A N/A NE5       30.01F

...CSRA...CENTRAL AND FAR SOUTHEAST GEORGIA...

CITY           SKY/WX    TMP DP  RH WIND       PRES   REMARKS
THOMSON        CLEAR     65  54  67 S3        30.04S
AUGUSTA-BUSH   MOCLDY    65  60  84 SE5       30.01S
AUGUSTA-DANIEL CLEAR     66  56  70 SE8       30.02S
SWAINSBORO     CLOUDY    68  59  73 E6        30.00F
VIDALIA        PTCLDY    68  63  83 SE6       29.99F
EASTMAN        FAIR      66  64  93 CALM      30.00F
HAZLEHURST     PTSUNNY   71  65  81 CALM      29.98S
ALMA           CLEAR     67  62  84 CALM      29.99F
WAYCROSS       CLOUDY    68  68 100 CALM      29.99F
JESUP          CLOUDY    68  63  83 CALM      29.99F
BAXLEY         CLOUDY    70  68  94 SE3       29.98F
BRUNSWICK      CLOUDY    70  68  94 NE5       30.00F
SAINT SIMONS   CLOUDY    70  66  87 S3        30.00F

$$

SCZ027-028-034-036>038-045-046-048>050-GAZ119-141-300800-
...LAKE AND SUPPLEMENTAL COASTAL OBSERVATIONS...

STATION/POSITION TIME  TEMP    WIND        PRES    WAVE   SWELL
                       AIR SEA DIR/SP/G            HT/PER HT/PER/DIR
                 (UTC) (F)     (DEG/KT/KT) (MB)    (FT/S) (FT/S/D)
WINYAH BAY       0645   63      70/  8     1018.0S
LAKE MURRAY      0630   64     130/  8/ 14 1016.9S
ACE BASIN NERRS  0630   67      80/  4     1017.0F
FORT PULASKI     0700   65 67   90/  7/  9 1016.7
SAPELO ISLAND    0700   66     100/  5     1016.0

$$

ANZ835-935-AMZ111-154-330-350-352-354-370-450-454-472-300800-
...C-MAN AND BUOY OBSERVATIONS...

STATION/POSITION TIME  TEMP    WIND        PRES    WAVE   SWELL
                       AIR SEA DIR/SP/G            HT/PER HT/PER/DIR
                 (UTC) (F)     (DEG/KT/KT) (MB)    (FT/S) (FT/S/D)
BUOY 41004       0650   71 69   80/ 16/ 19 1016.5F   6/10   3/110/10
BUOY 41008       0650   65 64     CALM     1016.0F   2/11
FOLLY BEACH CMAN 0700   65      70/  7/  8 1017.9F
CAPERS NEARSHORE NOT AVBL
FRIPP NEARSHORE  0708   65 64   70/ 10/ 14 1016.4F


STATION/POSITION TIME  TEMP    WIND        PRES    WAVE   SWELL
                       AIR SEA DIR/SP/G            HT/PER HT/PER/DIR
                 (UTC) (F)     (DEG/KT/KT) (MB)    (FT/S) (FT/S/D)
5E ST. MARYS GA  0700      68                N/A     2/12   2/110/12
FRYING PAN BUOY  0710   68 73   80/ 14/ 17 1018.4
BUOY 41025       0650   62 73   50/ 16/ 19 1019.6F   6/ 9   5/ 90/ 9
CAPE LOOKOUT NC  0700   62      60/ 15/ 16 1019.4F
BUOY 41002       0650   69 72   60/ 14/ 17 1017.8F   6/ 9   5/120/ 9
BUOY 41010       NOT AVBL
ST AUGUSTINE FL  0700   69 69     CALM     1016.6F


$$



USA.gov is the U.S. government's official web portal to all federal, state and local government web resources and services.